[[{"header":{"parameterUnit":"m.s-1","parameterCategory":1,"la1":30.2991,"la2":30.254,"lo1":-89.0895,"lo2":-89.0444,"dy":0.0017,"dx":0.0017,"nx":28,"ny":28,"refTime":"2025-04-13T09:00:00:Z","depth":0,"parameterNumber":2,"parameterNumberName":"U-component_of_WINDS"},"data":[0,0,0,0,0,0,0,0,0,0,0,0,0,0,0,0,0,0,0,0,0,0,0,0,0,0,0,0,0,0,0,0,0,0,0,0,0,0,0,0,0,0,0,0,0,0,0,0,0,0,0,0,0,0,0,0,0,0,2.5489,2.549,0,2.5548,2.5549,2.5549,2.5538,2.5537,2.5536,2.5535,2.5598,2.56,2.5603,0,0,0,0,0,0,0,0,0,0,0,0,0,2.5368,2.537,2.5489,2.549,2.549,2.5548,2.5549,2.555,2.5539,2.5537,2.5536,2.5535,2.5597,2.56,2.5603,0,0,0,0,0,0,0,0,0,0,0,0,0,2.5423,2.5371,2.5489,2.5492,2.5493,2.5548,2.5549,2.555,2.5539,2.5537,2.5536,2.5534,2.5596,2.56,2.5604,2.566,0,0,2.5616,2.5618,0,0,0,0,0,0,0,0,2.542,2.5427,2.5491,2.5492,2.5493,2.5534,2.5529,2.5587,2.5539,2.5521,2.5535,2.5533,2.5578,2.5583,2.5598,2.5663,2.5666,2.5616,2.5619,2.562,2.5621,0,0,0,0,0,0,0,2.5416,2.5425,2.5512,2.5492,2.5493,2.5491,2.5497,2.554,2.5558,2.5523,2.5522,2.5529,2.5578,2.5594,2.5599,2.5667,2.5616,2.562,2.5622,2.5624,2.578,2.5782,0,0,0,0,0,0,2.5411,2.5422,2.551,2.5514,2.5452,2.5494,2.5501,2.5523,2.5557,2.5561,2.5531,2.5529,2.5588,2.5595,2.5602,2.5669,2.562,2.5624,2.5626,2.5778,2.578,2.5782,0,0,0,0,0,0,2.5408,2.5419,2.5508,2.5468,2.5479,2.5498,2.5522,2.5525,2.554,2.5563,2.5567,2.5543,2.5587,2.5596,2.5645,2.5671,2.5626,2.5629,2.5776,2.5779,2.5781,2.5805,0,0,0,0,0,0,2.5405,2.5418,2.5439,2.5468,2.5481,2.555,2.5524,2.5527,2.5547,2.5545,2.5576,2.558,2.5587,2.5639,2.5649,2.5676,2.5632,2.5774,2.5777,2.578,2.5802,2.5808,2.5814,0,0,0,0,0,2.5401,2.5444,2.5441,2.5451,2.5508,2.5552,2.5559,2.5566,2.5549,2.5571,2.5585,2.5579,2.5667,2.5644,2.5655,2.5684,2.5772,2.5776,2.578,2.58,2.5807,2.5814,0,0,0,0,0,0,2.5419,2.5448,2.5444,2.5499,2.5523,2.555,2.5578,2.5574,2.5604,2.56,2.5608,2.5615,2.5665,2.5679,2.5654,2.574,2.5717,2.5724,2.5728,2.5736,2.5741,2.5737,2.5636,0,0,0,0,0,2.5429,2.5462,2.5486,2.5532,2.5544,2.5559,2.5578,2.5581,2.5606,2.5617,2.5635,2.566,2.5694,2.5716,2.5748,2.5804,2.5811,2.5829,2.5835,2.584,2.5845,2.5875,2.5884,2.5795,2.5795,2.5795,0,0,2.5451,2.5471,2.5491,2.5536,2.5555,2.5589,2.5567,2.5605,2.563,2.5623,2.567,2.5684,2.5713,2.5766,2.579,2.578,2.5871,2.5845,2.5848,2.5851,2.588,2.5889,2.5896,2.5798,2.5797,2.5797,0,0,2.5508,2.5526,2.5566,2.5585,2.5614,2.5624,2.5633,2.5661,2.567,2.5717,2.5712,2.5743,2.58,2.5821,2.5839,2.5903,2.5897,2.5913,2.5943,2.5972,2.5979,2.5986,2.6008,2.6016,2.5918,2.5918,2.5918,0,2.5531,2.5582,2.5587,2.5624,2.5644,2.5638,2.5679,2.5697,2.5735,2.5749,2.5736,2.5808,2.5827,2.5884,2.59,2.5915,2.5926,2.5909,2.5978,2.5984,2.599,2.6011,2.602,2.592,2.592,2.592,2.5919,0,2.5609,2.5644,2.5673,2.5709,2.5732,2.577,2.5782,2.5804,2.5805,2.5816,2.5864,2.5887,2.5923,2.5937,2.5938,2.5994,2.5987,2.5976,2.5953,2.6,2.602,2.6028,2.5922,2.5922,2.5921,2.5921,0,0,2.5679,2.5717,2.5727,2.5743,2.5775,2.5802,2.584,2.5875,2.5894,2.592,2.5953,2.6001,2.5991,2.6011,2.6015,2.6041,2.6089,2.6027,2.6028,2.6037,2.6152,2.6159,2.6169,2.6086,2.6088,2.6089,2.6149,0,2.5738,2.5805,2.5811,2.5871,2.5904,2.5899,2.5932,2.5955,2.5966,2.5995,2.6008,2.6041,2.6026,2.6038,2.6064,2.6078,2.6112,2.6074,2.6116,2.6118,2.6109,2.6179,2.6188,2.6243,2.6157,2.6159,2.616,0,2.5816,2.5844,2.5908,2.5933,2.5947,2.5977,2.6009,2.6037,2.6063,2.6069,2.6091,2.6091,2.6131,2.6107,2.6161,2.6135,2.6152,2.6162,2.6164,2.6168,2.6141,2.6185,2.6261,2.627,2.6172,2.6171,2.617,0,2.586,2.5914,2.5958,2.5972,2.6004,2.6025,2.6039,2.6063,2.6083,2.6111,2.6125,2.6157,2.6175,2.62,2.6209,2.6191,2.6263,2.624,2.6269,2.6269,2.6284,2.6283,2.6364,2.6296,2.6296,2.6296,2.6296,0,2.5926,2.5965,2.5978,2.6006,2.6049,2.6056,2.6098,2.6112,2.6133,2.6163,2.6161,2.6189,2.6199,2.6229,2.6236,2.628,2.6288,2.6294,2.6296,2.6294,2.6293,2.6306,2.6302,2.6298,2.6298,2.6297,2.6297,0,2.5982,2.5993,2.6041,2.6067,2.6074,2.6105,2.6127,2.6154,2.6164,2.6202,2.6211,2.6228,2.6263,2.6274,2.6317,2.6321,2.6372,2.637,2.6363,2.6363,2.6392,2.6389,2.6483,2.6496,2.642,2.6421,2.6421,0,2.6023,2.6052,2.6081,2.6101,2.6115,2.6147,2.6168,2.6175,2.6196,2.6228,2.625,2.6285,2.6313,2.6369,2.6385,2.6417,2.6416,2.6447,2.6421,2.6418,2.6416,2.6414,2.6417,2.6452,2.6453,2.6453,2.6454,0,2.6094,2.6097,2.6127,2.6158,2.6182,2.6207,2.6231,2.6247,2.6258,2.6282,2.6318,2.6339,2.6382,2.6417,2.6449,2.6464,2.6461,2.6462,2.647,2.6469,2.6463,2.6466,2.6376,2.646,2.6459,2.6459,2.6458,2.6458,2.6143,2.6169,2.6193,2.6225,2.6244,2.6267,2.6292,2.6306,2.6335,2.637,2.6373,2.6411,2.6436,2.648,2.6496,2.6526,2.6517,2.653,2.6533,2.6535,2.6537,2.6459,2.6532,2.6532,2.6532,2.6532,2.6532,0,2.6213,2.6228,2.6258,2.6292,2.6317,2.6311,2.6337,2.6359,2.6393,2.6416,2.6443,2.6483,2.6516,2.6535,2.6568,2.6588,2.6587,2.6597,2.6595,2.6598,2.6544,2.6533,2.6597,2.6597,2.6597,2.6597,2.6597,2.6597,2.6253,2.6296,2.6303,2.6355,2.637,2.6407,2.6422,2.6443,2.6461,2.6506,2.6533,2.6545,2.6566,2.66,2.663,2.6635,2.6647,2.6657,2.666,2.6609,2.6602,2.6596,2.6586,2.666,2.666,2.6712,2.6713,2.6713]},{"header":{"parameterUnit":"m.s-1","parameterCategory":1,"la1":30.2991,"la2":30.254,"lo1":-89.0895,"lo2":-89.0444,"dy":0.0017,"dx":0.0017,"nx":28,"ny":28,"refTime":"2025-04-13T09:00:00:Z","depth":0,"parameterNumber":3,"parameterNumberName":"V-component_of_WINDS"},"data":[0,0,0,0,0,0,0,0,0,0,0,0,0,0,0,0,0,0,0,0,0,0,0,0,0,0,0,0,0,0,0,0,0,0,0,0,0,0,0,0,0,0,0,0,0,0,0,0,0,0,0,0,0,0,0,0,0,0,5.252,5.2521,0,5.257,5.257,5.2571,5.2579,5.2578,5.2578,5.2577,5.2622,5.2624,5.2625,0,0,0,0,0,0,0,0,0,0,0,0,0,5.2428,5.2429,5.252,5.2521,5.2522,5.257,5.257,5.2571,5.2579,5.2578,5.2578,5.2577,5.2622,5.2624,5.2626,0,0,0,0,0,0,0,0,0,0,0,0,0,5.2471,5.243,5.252,5.2531,5.2533,5.257,5.257,5.2571,5.2579,5.2578,5.2578,5.2577,5.2621,5.2623,5.2626,5.2653,0,0,5.2633,5.2634,0,0,0,0,0,0,0,0,5.2469,5.2475,5.2529,5.2531,5.2532,5.2568,5.2554,5.2598,5.2579,5.2561,5.2577,5.2577,5.2604,5.2608,5.2618,5.2655,5.2657,5.2633,5.2635,5.2636,5.2636,0,0,0,0,0,0,0,5.2466,5.2473,5.254,5.253,5.2532,5.2532,5.2538,5.2563,5.2585,5.2563,5.2563,5.2569,5.2605,5.2616,5.262,5.2658,5.2633,5.2635,5.2637,5.2638,5.272,5.2721,0,0,0,0,0,0,5.2462,5.247,5.2538,5.2541,5.2499,5.2534,5.2541,5.2557,5.2585,5.2589,5.257,5.257,5.2612,5.2617,5.2621,5.2656,5.2636,5.2638,5.2639,5.2719,5.272,5.2721,0,0,0,0,0,0,5.246,5.2468,5.2536,5.2506,5.2515,5.2537,5.2555,5.2558,5.2569,5.2591,5.2594,5.2578,5.2612,5.2618,5.2646,5.2657,5.2639,5.2641,5.2718,5.2719,5.2721,5.2724,0,0,0,0,0,0,5.2457,5.2467,5.2479,5.2506,5.2516,5.2561,5.2556,5.256,5.2574,5.2574,5.2599,5.2602,5.2612,5.2642,5.2648,5.266,5.2643,5.2717,5.2719,5.272,5.2723,5.2725,5.2727,0,0,0,0,0,5.2454,5.2476,5.2479,5.2487,5.2532,5.2562,5.2568,5.258,5.2575,5.2586,5.26,5.2601,5.2655,5.2645,5.2652,5.2665,5.2717,5.2718,5.272,5.2722,5.2725,5.2727,0,0,0,0,0,0,5.2446,5.248,5.2484,5.2516,5.2537,5.2563,5.2578,5.2582,5.2603,5.2602,5.2615,5.262,5.2647,5.2659,5.2647,5.2693,5.2685,5.2688,5.2685,5.2687,5.2689,5.2686,5.2645,0,0,0,0,0,5.2449,5.2473,5.25,5.2526,5.2536,5.2555,5.2569,5.2577,5.2598,5.2606,5.2622,5.264,5.2661,5.2675,5.2695,5.2725,5.273,5.2737,5.2739,5.2741,5.2743,5.276,5.2763,5.2727,5.2727,5.2727,0,0,5.2454,5.2475,5.2489,5.2525,5.2542,5.2565,5.2562,5.2586,5.2603,5.2609,5.2637,5.2649,5.2671,5.27,5.2713,5.271,5.2755,5.2743,5.2744,5.2746,5.2762,5.2766,5.2769,5.2728,5.2727,5.2727,0,0,5.2475,5.2493,5.2518,5.2535,5.2562,5.2574,5.258,5.2607,5.2616,5.2645,5.265,5.2669,5.2705,5.2721,5.2733,5.2762,5.2763,5.2768,5.2778,5.2794,5.2797,5.28,5.281,5.2814,5.277,5.277,5.277,0,5.2477,5.2514,5.2529,5.2554,5.2569,5.2578,5.2602,5.2617,5.2648,5.2658,5.2654,5.2701,5.2716,5.2749,5.2756,5.2766,5.2772,5.2765,5.2796,5.2799,5.2801,5.2811,5.2815,5.277,5.277,5.277,5.277,0,5.2515,5.254,5.2556,5.2589,5.2606,5.263,5.2648,5.2663,5.267,5.2683,5.2712,5.2731,5.2756,5.2764,5.277,5.2798,5.2795,5.2794,5.2786,5.2805,5.2815,5.2819,5.2771,5.2771,5.2771,5.2771,0,0,5.2532,5.2574,5.258,5.2595,5.2625,5.2644,5.2668,5.2695,5.2708,5.2729,5.2749,5.278,5.2779,5.2794,5.2801,5.2816,5.2837,5.2812,5.2813,5.2816,5.287,5.2871,5.2876,5.2839,5.284,5.284,5.2868,0,5.2556,5.2602,5.2617,5.2655,5.2678,5.2688,5.2709,5.2729,5.2741,5.2762,5.2775,5.2797,5.2794,5.2803,5.2818,5.2832,5.2848,5.283,5.2857,5.2858,5.2852,5.2881,5.2882,5.2907,5.2872,5.2873,5.2873,0,5.2591,5.2615,5.2656,5.2685,5.2695,5.2714,5.274,5.276,5.2783,5.2791,5.2808,5.2815,5.2839,5.2831,5.2865,5.2852,5.2864,5.2872,5.2873,5.2876,5.2867,5.2884,5.2916,5.2919,5.2879,5.2879,5.2878,0,5.2599,5.2642,5.2673,5.2685,5.2719,5.2733,5.2747,5.277,5.2785,5.2807,5.2817,5.2841,5.2854,5.2871,5.2884,5.2877,5.2917,5.2909,5.2923,5.2923,5.2931,5.293,5.2965,5.2939,5.2939,5.2938,5.2938,0,5.2625,5.265,5.2677,5.2696,5.2723,5.274,5.2766,5.2781,5.2801,5.2822,5.283,5.2849,5.2864,5.2885,5.2895,5.2921,5.2926,5.2933,5.2935,5.2933,5.2932,5.294,5.2939,5.2939,5.2939,5.2939,5.2939,0,5.2639,5.2659,5.2693,5.2723,5.2732,5.2751,5.2776,5.2793,5.2807,5.2833,5.284,5.2861,5.2885,5.29,5.293,5.2937,5.2966,5.2968,5.296,5.2961,5.2974,5.2973,5.3016,5.3022,5.2991,5.2991,5.2992,0,5.2655,5.2674,5.2708,5.2724,5.2739,5.2764,5.278,5.2797,5.2814,5.2842,5.2856,5.2882,5.2903,5.2942,5.2959,5.2982,5.2984,5.2998,5.2988,5.2985,5.2985,5.2984,5.2986,5.2999,5.2999,5.3,5.3,0,5.268,5.2689,5.2714,5.2743,5.2763,5.2786,5.2808,5.282,5.284,5.2858,5.2885,5.2902,5.2934,5.2959,5.2985,5.2998,5.3002,5.3003,5.3008,5.3005,5.3,5.3003,5.2964,5.3002,5.3002,5.3001,5.3001,5.3001,5.2695,5.2714,5.2741,5.2769,5.2788,5.2809,5.2828,5.2845,5.2868,5.2898,5.2906,5.2934,5.2956,5.2991,5.3004,5.3025,5.3023,5.303,5.3031,5.3033,5.3034,5.2996,5.303,5.303,5.303,5.303,5.303,0,5.2721,5.274,5.2765,5.2798,5.282,5.2825,5.285,5.2867,5.2892,5.2914,5.2936,5.2967,5.2991,5.3011,5.3036,5.3049,5.3052,5.3055,5.3054,5.3057,5.3034,5.3028,5.3053,5.3053,5.3053,5.3053,5.3053,5.3053,5.2738,5.2769,5.2782,5.2823,5.2841,5.287,5.2884,5.2904,5.2921,5.2956,5.2978,5.2991,5.3012,5.3039,5.3062,5.3067,5.3076,5.3079,5.3084,5.3061,5.3059,5.3057,5.3051,5.3081,5.3081,5.3106,5.3106,5.3106]}]]